Regional Weather Roundup
Issued by NWS

Home | Current Version | Previous Version | Graphics & Text | Print | Product List | Glossary On
Versions: 1 2 3 4 5 6 7 8 9 10 11 12 13 14 15 16 17 18 19 20 21 22 23 24 25 26 27 28 29 30 31 32 33 34 35 36 37 38 39 40 41 42 43 44 45 46 47 48 49 50
000
ASUS43 KMPX 130401
RWRMN
WEATHER ROUNDUP FOR MINNESOTA
NATIONAL WEATHER SERVICE TWIN CITIES/CHANHASSEN MN
1100 PM CDT SAT JUL 12 2014


NOTE: "FAIR" INDICATES FEW OR NO CLOUDS BELOW 12,000 FEET WITH NO
SIGNIFICANT WEATHER AND/OR OBSTRUCTIONS TO VISIBILITY. N/A MEANS
CURRENT SKY AND/OR WEATHER CONDITIONS ARE NOT AVAILABLE.

MNZ060>063-068>070-130500-
   Twin Cities Metro

CITY           SKY/WX    TMP DP  RH WIND       PRES   REMARKS
TWIN CITIES    PTCLDY    70  65  84 SW6       29.94F
ST PAUL        CLEAR     69  65  86 CALM      29.93F
CRYSTAL        CLEAR     69  62  78 SW5       29.92F
BLAINE         CLEAR     66  63  88 SW3       29.93F
LAKEVILLE      CLEAR     64  64 100 CALM      29.95F
EDEN PRAIRIE   CLEAR     67  64  90 SW3       29.93F
SOUTH ST PAUL  CLEAR     68  65  89 SW3       29.94S
LAKE ELMO      FAIR      64  63  94 CALM      29.94F
$$
MNZ001>005-007-008-013>017-022>024-027-028-130500-
   Northwest Minnesota

CITY           SKY/WX    TMP DP  RH WIND       PRES   REMARKS
BEMIDJI        MOCLDY    57  55  91 W8        29.92S
HALLOCK        CLEAR     57  55  94 NW3       29.94R
ROSEAU         CLEAR     55  50  82 W5        29.93R
WARROAD        CLEAR     52  48  87 W5        29.92F
THIEF RVR FALL PTCLDY    57  55  94 NW9       29.95R
CROOKSTON      CLEAR     57  55  94 NW5       29.96R
FOSSTON        MOCLDY    55  54  94 NW7       29.95R
DETROIT LAKES  PTCLDY    63  54  72 N3        29.97F
MOORHEAD       PTCLDY    63  59  88 CALM      29.96S
PARK RAPIDS    CLOUDY    62  52  69 N7        29.93F
$$
MNZ006-009>011-018-025>026-130500-
   North Central Minnesota

CITY           SKY/WX    TMP DP  RH WIND       PRES   REMARKS
BAUDETTE       PTCLDY    56  47  71 NW12      29.91R
FLAG ISLAND    CLEAR     57  48  72 NW14      29.88S
INTL FALLS     MOCLDY    55  53  93 NW8       29.87R
WASKISH        MOCLDY    59  54  82 NW10G18   29.91S
BIG FORK       CLOUDY    57  54  88 SW6       29.92R
LONGVILLE      PTCLDY    61  55  82 NW5       29.92F
GRAND RAPIDS   CLOUDY    57  54  88 NW8       29.93R
CRANE LAKE     CLOUDY    55  54  94 W5        29.87S
ORR            CLOUDY    55  52  88 W5        29.85S
COOK           RAIN      57  54  88 SW6       29.89S
$$
MNZ012-019>021-037-130500-
   Northeast Minnesota

CITY           SKY/WX    TMP DP  RH WIND       PRES   REMARKS
DULUTH         PTCLDY    63  58  83 W9        29.85F
ELY            PTCLDY    61  48  63 W8        29.85F
HIBBING        CLOUDY    58  55  90 CALM      29.89R
EVELETH        LGT RAIN  57  52  82 W7        29.91R
DULUTH HARBOR  CLEAR     68  63  83 SW13      29.84S
TWO HARBORS    CLEAR     61  55  82 W5        29.82S
SILVER BAY     CLEAR     57  57 100 CALM      29.81S
GRAND MARAIS     N/A     48  46  93 CALM      29.77F
G MARAIS ARPRT CLEAR     57  54  88 SW3       29.82S
$$
MNZ029>031-032-039>041-046>048-054>057-064-130500-
   West Central Minnesota

CITY           SKY/WX    TMP DP  RH WIND       PRES   REMARKS
FERGUS FALLS   CLEAR     66  50  55 N9G16     29.95R
WHEATON        PTCLDY    68  61  77 W5        29.96S
MORRIS         CLEAR     66  63  88 SW9       29.93F
ALEXANDRIA     MOCLDY    68  62  81 SW6       29.95S
ELBOW LAKE     FAIR      66  61  82 W6        29.93S
WADENA         PTCLDY    63  52  67 N15       29.94R
GLENWOOD       CLEAR     64  63  94 SW8       29.95S
APPLETON       CLEAR     68  63  83 W6        29.95S
BENSON         CLEAR     66  63  88 W7        29.95S
ORTONVILLE     CLEAR     70  63  78 W6        29.96S
MADISON        CLEAR     72  64  78 W5        29.96F
WILLMAR        FAIR      70  64  83 SW6       29.97S
$$
MNZ033>034-036-042>043-049>051-058-059-130500-
   Central Minnesota

CITY           SKY/WX    TMP DP  RH WIND       PRES   REMARKS
ST CLOUD       CLEAR     65  60  84 S5        29.92F
SAUK CENTRE    FAIR      64  61  88 SW7       29.94S
PAYNESVILLE    HVY RAIN  62  60  91 S3        29.95S
AITKIN         CLEAR     68  61  77 SW5       29.88S
PINE RIVER     PTCLDY    64  54  68 N9G16     29.97R
BRAINERD       CLEAR     70  60  70 SW6       29.90F
STAPLES        PTCLDY    64  57  77 N20G31    29.93R
LONG PRAIRIE   FAIR      63  61  94 SW5       29.94R
LITTLE FALLS   CLEAR     63  59  88 CALM      29.92S
LITCHFIELD       N/A     66  64  94 CALM      29.96S
BUFFALO        CLEAR     67  62  83 CALM      29.95F
MAPLE LAKE     CLEAR     66  64  93 CALM      29.94F
$$
MNZ037-044-045-052-053-130500-
   East Central Minnesota

CITY           SKY/WX    TMP DP  RH WIND       PRES   REMARKS
PRINCETON      CLEAR     66  61  82 CALM      29.92F
MORA           CLEAR     64  61  88 CALM      29.92S
CAMBRIDGE      CLEAR     68  57  68 CALM      29.91S
RUSH CITY      PTCLDY    65  60  84 CALM      29.91S
MOOSE LAKE     PTCLDY    59  57  94 SW3       29.86F
HINCKLEY       FAIR      63  61  94 SW5       29.90S
CLOQUET        CLEAR     64  57  77 SW6       29.87S
MCGREGOR       CLEAR     63  59  88 SW5       29.89S
$$
MNZ071>073-080-081-089-090-097-098-130500-
   Southwest Minnesota

CITY           SKY/WX    TMP DP  RH WIND       PRES   REMARKS
MONTEVIDEO     CLEAR     70  64  83 W6        29.97S
GRANITE FALLS  CLEAR     68  64  88 SW7       29.98F
CANBY          CLEAR     68  64  89 W6        29.99F
MARSHALL       CLEAR     66  64  94 W8        29.98S
REDWOOD FALLS  CLEAR     68  65  90 SW5       29.97S
OLIVIA         CLEAR     66  63  88 SW3       29.96F
PIPESTONE      CLEAR     70  64  83 NW6       30.03S
WINDOM         CLEAR     68  64  88 SW3       30.01S
WORTHINGTON    CLEAR     68  64  88 W3        30.03F
JACKSON        CLEAR     66  63  88 CALM      30.02F
TRACY          CLEAR     69  66  90 W5        30.00F
SLAYTON        CLEAR     68  64  88 CALM      30.03S
$$
MNZ065>067-074>077-082>085-091>093-130500-
   South Central Minnesota

CITY           SKY/WX    TMP DP  RH WIND       PRES   REMARKS
MANKATO        CLEAR     68  63  83 W5        29.98S
NEW ULM        CLEAR     66  66 100 SW5       29.97F
ST JAMES       CLEAR     68  64  88 SW3       30.00S
FAIRMONT       CLEAR     66  61  82 CALM      30.00S
GLENCOE        CLEAR     68  63  83 CALM      29.95F
FARIBAULT      CLEAR     70  63  78 CALM      29.98R
OWATONNA       CLEAR     66  64  94 SW5       29.98S
WASECA         CLEAR     63  59  88 SW3       30.00S
ALBERT LEA     CLEAR     66  64  94 CALM      29.99F
$$
MNZ078>079-086>088-094>096-130500-
   Southeast Minnesota

CITY           SKY/WX    TMP DP  RH WIND       PRES   REMARKS
ROCHESTER      CLEAR     64  62  93 W7        29.99S
RED WING       CLEAR     66  64  94 W3        29.94S
STANTON        PTCLDY    66  64  91 S3        29.95S
DODGE CENTER   CLEAR     64  64 100 W6        29.98S
WINONA         CLEAR     66  64  94 CALM      29.94F
AUSTIN         CLEAR     66  64  94 CALM      29.98F
PRESTON        FOG       65  64  98 CALM      29.99S VSB 1/2
$$
ABBREVIATIONS USED IN REMARKS
   TC - TEMPERATURES IN CELSIUS
  WCI - WIND CHILL INDEX
   HX - HEAT INDEX
  VSB - VISIBILITY
$$


USA.gov is the U.S. government's official web portal to all federal, state and local government web resources and services.